Ellensburg, WA
on Tuesday, December 18, 2012

Tuesday
Previous Day Next Day
Daily Summary
 ActualAverage (KYKM)Record (KYKM)
Temperature
Mean Temperature °F 28°F  
Max Temperature 30°F 35°F 55°F (1974)
Min Temperature 12°F 21°F -10°F (1984)
Degree Days
Heating Degree Days 44 37  
Month to date heating degree days 643  
Since 1 July heating degree days 2176  
Cooling Degree Days 0 0  
Month to date cooling degree days 0  
Year to date cooling degree days 472  
Moisture
Dew Point 13°F   
Average Humidity 78    
Maximum Humidity 84    
Minimum Humidity 64    
Precipitation
Precipitation 0.00 in 0.05 in 0.39 in (1955)
Month to date precipitation 0.88  
Year to date precipitation 7.60  
Snow
Snow 0.00 in 0.30 in 4.70 in (1955)
Month to date snowfall 5.3  
Year to date snowfall 17.5  
Since 1 July snowfall 8.9  
Snow Depth in   
Wind
Wind Speed 2 mph   
Max Wind Speed 6 mph   
Max Gust Speed mph   
Visibility 10 miles   
Events     

Key: T is trace of precipitation, MM is missing value
Source: NWS Daily Summary
Time(PST)TemperatureDew PointHumidity Pressure Visibility Wind DirectionWind SpeedGust SpeedPrecipitationEvents Conditions
12:53 AM 19.9°F 15.1°F 81% 29.88 in 10.0 miles East 3.5 mph - N/A   Mostly Cloudy
1:53 AM 19.9°F 15.1°F 81% 29.89 in 10.0 miles East 3.5 mph - N/A   Clear
2:53 AM 18.0°F 12.9°F 81% 29.90 in 10.0 miles NE 4.6 mph - N/A   Clear
3:53 AM 15.1°F 10.0°F 80% 29.91 in 10.0 miles Calm Calm - N/A   Clear
4:53 AM 16.0°F 10.9°F 81% 29.91 in 10.0 miles ENE 5.8 mph - N/A   Mostly Cloudy
5:53 AM 18.0°F 12.9°F 81% 29.92 in 10.0 miles Calm Calm - N/A   Overcast
6:53 AM 15.1°F 10.9°F 84% 29.93 in 10.0 miles Calm Calm - N/A   Clear
7:53 AM 14.0°F 8.1°F 77% 29.94 in 10.0 miles Calm Calm - N/A   Clear
8:53 AM 17.1°F 10.9°F 77% 29.95 in 10.0 miles ENE 3.5 mph - N/A   Clear
9:53 AM 23.0°F 17.1°F 78% 29.95 in 10.0 miles East 3.5 mph - N/A   Clear
10:53 AM 21.0°F 15.1°F 78% 29.96 in 10.0 miles Calm Calm - N/A   Clear
11:53 AM 25.0°F 17.1°F 72% 29.94 in 10.0 miles East 4.6 mph - N/A   Clear
12:53 PM 27.0°F 18.0°F 69% 29.94 in 10.0 miles Calm Calm - N/A   Clear
1:53 PM 30.9°F 19.9°F 64% 29.93 in 10.0 miles Calm Calm - N/A   Clear
2:53 PM 26.1°F 18.0°F 71% 29.94 in 10.0 miles East 3.5 mph - N/A   Partly Cloudy
3:53 PM 25.0°F 17.1°F 72% 29.95 in 10.0 miles Calm Calm - N/A   Clear
4:53 PM 19.0°F 14.0°F 81% 29.97 in 10.0 miles Calm Calm - N/A   Clear
5:53 PM 16.0°F 10.9°F 81% 29.99 in 10.0 miles Calm Calm - N/A   Clear
6:53 PM 16.0°F 10.0°F 77% 30.00 in 10.0 miles Calm Calm - N/A   Clear
7:53 PM 17.1°F 10.9°F 77% 30.02 in 10.0 miles SW 3.5 mph - N/A   Clear
8:53 PM 12.0°F 7.0°F 80% 30.02 in 10.0 miles Calm Calm - N/A   Clear
9:53 PM 12.9°F 7.0°F 77% 30.03 in 10.0 miles Calm Calm - N/A   Clear
10:53 PM 12.9°F 8.1°F 81% 30.04 in 10.0 miles Calm Calm - N/A   Clear
11:53 PM 18.0°F 12.9°F 81% 30.03 in 7.0 miles Calm Calm - N/A   Clear
Moon Phase
Dec. 18 Dec. 20 Dec. 28 Jan. 04 Jan. 11
Sunrise:07:43 AM (PST) Moon Rise:11:04 AM (PST)12/18
Sunset:04:14 PM (PST) Moon Set:11:09 PM (PST)12/18

Copyright © 2014 The Weather Underground, Inc.